Time,TemperatureF,DewpointF,PressureIn,WindDirection,WindDirectionDegrees,WindSpeedMPH,WindSpeedGustMPH,Humidity,HourlyPrecipIn,Conditions,Clouds,dailyrainin,SoftwareType,DateUTC
2013-02-03 00:03:00,22.0,21.0,-100.00,WSW,245,1.0,8.0,94,3.39,,,-99.99,,2013-02-03 05:03:00,
2013-02-03 00:12:00,23.0,23.0,-100.00,SW,216,1.0,8.0,94,0.00,,,-99.99,,2013-02-03 05:12:00,
2013-02-03 00:22:00,26.0,25.0,-100.00,WSW,240,1.0,8.0,94,1.69,,,-99.99,,2013-02-03 05:22:00,
2013-02-03 00:32:00,24.0,23.0,-100.00,West,279,1.0,8.0,94,1.14,,,-99.99,,2013-02-03 05:32:00,
2013-02-03 00:42:00,23.0,23.0,-100.00,SW,223,1.0,8.0,94,1.69,,,-99.99,,2013-02-03 05:42:00,
2013-02-03 00:52:00,25.0,25.0,-100.00,WSW,240,1.0,8.0,94,0.55,,,-99.99,,2013-02-03 05:52:00,
2013-02-03 01:02:00,24.0,23.0,-100.00,WSW,248,1.0,8.0,94,0.00,,,-99.99,,2013-02-03 06:02:00,
2013-02-03 01:11:00,25.0,25.0,-100.00,WSW,251,2.0,8.0,94,0.55,,,-99.99,,2013-02-03 06:11:00,
2013-02-03 01:21:00,23.0,21.0,-100.00,WSW,238,2.0,8.0,93,0.55,,,-99.99,,2013-02-03 06:21:00,
2013-02-03 01:32:00,24.0,23.0,-100.00,WSW,241,2.0,8.0,94,9.06,,,-99.99,,2013-02-03 06:32:00,
2013-02-03 01:42:00,24.0,23.0,-100.00,WSW,256,2.0,8.0,94,2.28,,,-99.99,,2013-02-03 06:42:00,
2013-02-03 01:52:00,24.0,23.0,-100.00,West,269,1.0,8.0,94,1.14,,,-99.99,,2013-02-03 06:52:00,
2013-02-03 02:11:00,27.0,27.0,-100.00,SW,234,1.0,8.0,95,19.29,,,-99.99,,2013-02-03 07:11:00,
2013-02-03 02:21:00,26.0,25.0,-100.00,SW,225,2.0,8.0,94,2.28,,,-99.99,,2013-02-03 07:21:00,
2013-02-03 02:42:00,24.0,23.0,-100.00,SW,228,1.0,8.0,94,0.00,,,-99.99,,2013-02-03 07:42:00,
2013-02-03 02:52:00,28.0,28.0,-100.00,SW,224,0.0,8.0,95,0.55,,,-99.99,,2013-02-03 07:52:00,
2013-02-03 03:02:00,27.0,27.0,-100.00,SW,228,0.0,8.0,95,0.00,,,-99.99,,2013-02-03 08:02:00,
2013-02-03 03:11:00,27.0,27.0,-100.00,WSW,252,0.0,8.0,95,2.83,,,-99.99,,2013-02-03 08:11:00,
2013-02-03 03:22:00,23.0,23.0,-100.00,WSW,254,1.0,8.0,94,0.55,,,-99.99,,2013-02-03 08:22:00,
2013-02-03 03:32:00,23.0,23.0,-100.00,SW,235,1.0,8.0,95,0.00,,,-99.99,,2013-02-03 08:32:00,
2013-02-03 03:42:00,24.0,23.0,-100.00,SW,217,1.0,8.0,94,0.00,,,-99.99,,2013-02-03 08:42:00,
2013-02-03 04:11:00,24.0,23.0,-100.00,SSW,204,1.0,8.0,94,1.14,,,-99.99,,2013-02-03 09:11:00,
2013-02-03 04:22:00,24.0,23.0,-100.00,WSW,241,1.0,8.0,94,0.00,,,-99.99,,2013-02-03 09:22:00,
2013-02-03 04:32:00,24.0,23.0,-100.00,SW,230,0.0,8.0,94,0.55,,,-99.99,,2013-02-03 09:32:00,
2013-02-03 04:52:00,24.0,23.0,-100.00,SW,214,1.0,8.0,94,0.55,,,-99.99,,2013-02-03 09:52:00,
2013-02-03 05:01:00,24.0,23.0,-100.00,SW,230,1.0,8.0,94,0.00,,,-99.99,,2013-02-03 10:01:00,
2013-02-03 05:11:00,24.0,23.0,-100.00,SW,227,1.0,8.0,95,0.55,,,-99.99,,2013-02-03 10:11:00,
2013-02-03 05:21:00,24.0,23.0,-100.00,WSW,237,1.0,8.0,94,0.00,,,-99.99,,2013-02-03 10:21:00,
2013-02-03 05:32:00,24.0,23.0,-100.00,SW,235,1.0,8.0,95,4.53,,,-99.99,,2013-02-03 10:32:00,
2013-02-03 05:42:00,24.0,23.0,-100.00,WSW,245,1.0,8.0,94,1.69,,,-99.99,,2013-02-03 10:42:00,
2013-02-03 05:52:00,24.0,23.0,-100.00,SW,223,0.0,8.0,94,1.14,,,-99.99,,2013-02-03 10:52:00,
2013-02-03 06:02:00,23.0,23.0,-100.00,SW,228,0.0,8.0,94,0.55,,,-99.99,,2013-02-03 11:02:00,
2013-02-03 06:11:00,24.0,23.0,-100.00,SW,214,1.0,1.0,95,0.00,,,-99.99,,2013-02-03 11:11:00,
2013-02-03 06:22:00,24.0,23.0,-100.00,SW,221,1.0,1.0,95,0.00,,,-99.99,,2013-02-03 11:22:00,
2013-02-03 06:32:00,24.0,23.0,-100.00,SW,214,1.0,1.0,94,0.00,,,-99.99,,2013-02-03 11:32:00,
2013-02-03 07:02:00,24.0,23.0,-100.00,SSW,206,2.0,2.0,94,1.14,,,-99.99,,2013-02-03 12:02:00,
2013-02-03 07:12:00,23.0,23.0,-100.00,WSW,237,1.0,2.0,94,0.00,,,-99.99,,2013-02-03 12:12:00,
2013-02-03 07:22:00,23.0,23.0,-100.00,SW,220,2.0,2.0,93,0.00,,,-99.99,,2013-02-03 12:22:00,
2013-02-03 07:32:00,22.0,21.0,-100.00,WSW,240,2.0,2.0,91,0.00,,,-99.99,,2013-02-03 12:32:00,
2013-02-03 07:42:00,22.0,21.0,-100.00,West,268,2.0,2.0,90,0.00,,,-99.99,,2013-02-03 12:42:00,
2013-02-03 07:53:00,22.0,19.0,-100.00,South,189,1.0,2.0,88,0.00,,,-99.99,,2013-02-03 12:53:00,
2013-02-03 08:03:00,21.0,19.0,-100.00,SW,232,2.0,2.0,88,0.00,,,-99.99,,2013-02-03 13:03:00,
2013-02-03 08:11:00,21.0,19.0,-100.00,SW,227,2.0,2.0,88,0.00,,,-99.99,,2013-02-03 13:11:00,
2013-02-03 08:22:00,21.0,18.0,-100.00,SSW,208,2.0,2.0,85,0.00,,,-99.99,,2013-02-03 13:22:00,
2013-02-03 08:32:00,22.0,19.0,-100.00,WSW,237,1.0,2.0,86,1.14,,,-99.99,,2013-02-03 13:32:00,
2013-02-03 08:42:00,22.0,18.0,-100.00,SW,228,1.0,2.0,84,1.69,,,-99.99,,2013-02-03 13:42:00,
2013-02-03 08:52:00,22.0,18.0,-100.00,SW,220,1.0,2.0,84,1.69,,,-99.99,,2013-02-03 13:52:00,
2013-02-03 09:02:00,23.0,21.0,-100.00,SW,220,1.0,2.0,86,1.14,,,-99.99,,2013-02-03 14:02:00,
2013-02-03 09:12:00,22.0,19.0,-100.00,SW,216,2.0,2.0,85,3.39,,,-99.99,,2013-02-03 14:12:00,
2013-02-03 09:22:00,20.0,18.0,-100.00,WSW,247,2.0,2.0,85,0.00,,,-99.99,,2013-02-03 14:22:00,
2013-02-03 09:32:00,21.0,18.0,-100.00,WSW,240,2.0,2.0,84,0.00,,,-99.99,,2013-02-03 14:32:00,
2013-02-03 09:42:00,21.0,18.0,-100.00,SW,217,1.0,2.0,82,1.14,,,-99.99,,2013-02-03 14:42:00,
2013-02-03 09:52:00,21.0,18.0,-100.00,WSW,255,1.0,2.0,81,0.00,,,-99.99,,2013-02-03 14:52:00,
2013-02-03 10:03:00,20.0,16.0,-100.00,SW,230,2.0,2.0,81,0.55,,,-99.99,,2013-02-03 15:03:00,
2013-02-03 10:12:00,21.0,18.0,-100.00,SSW,194,1.0,2.0,82,0.55,,,-99.99,,2013-02-03 15:12:00,
2013-02-03 10:22:00,20.0,16.0,-100.00,SW,220,2.0,2.0,80,0.00,,,-99.99,,2013-02-03 15:22:00,
2013-02-03 10:33:00,21.0,18.0,-100.00,WSW,252,2.0,2.0,80,0.00,,,-99.99,,2013-02-03 15:33:00,
2013-02-03 10:42:00,21.0,16.0,-100.00,SW,223,2.0,2.0,78,0.00,,,-99.99,,2013-02-03 15:42:00,
2013-02-03 10:51:00,22.0,18.0,-100.00,West,261,2.0,2.0,78,0.00,,,-99.99,,2013-02-03 15:51:00,
2013-02-03 11:03:00,21.0,16.0,-100.00,SW,227,3.0,4.0,78,0.00,,,-99.99,,2013-02-03 16:03:00,
2013-02-03 11:11:00,22.0,18.0,-100.00,SSW,210,3.0,4.0,76,0.55,,,-99.99,,2013-02-03 16:11:00,
2013-02-03 11:22:00,22.0,18.0,-100.00,SW,217,4.0,4.0,78,0.00,,,-99.99,,2013-02-03 16:22:00,
2013-02-03 11:33:00,22.0,18.0,-100.00,SSW,210,4.0,6.0,77,0.00,,,-99.99,,2013-02-03 16:33:00,
2013-02-03 11:42:00,22.0,18.0,-100.00,SW,220,4.0,6.0,76,0.00,,,-99.99,,2013-02-03 16:42:00,
2013-02-03 11:52:00,23.0,18.0,-100.00,SW,228,5.0,6.0,73,0.00,,,-99.99,,2013-02-03 16:52:00,
2013-02-03 12:03:00,22.0,16.0,-100.00,SW,228,5.0,6.0,73,0.00,,,-99.99,,2013-02-03 17:03:00,
2013-02-03 12:11:00,22.0,16.0,-100.00,SW,221,6.0,6.0,73,1.69,,,-99.99,,2013-02-03 17:11:00,
2013-02-03 12:22:00,23.0,18.0,-100.00,WSW,244,5.0,8.0,73,2.83,,,-99.99,,2013-02-03 17:22:00,
2013-02-03 12:32:00,23.0,16.0,-100.00,SW,220,5.0,8.0,71,1.14,,,-99.99,,2013-02-03 17:32:00,
2013-02-03 12:42:00,23.0,16.0,-100.00,WSW,242,5.0,8.0,72,0.00,,,-99.99,,2013-02-03 17:42:00,
2013-02-03 12:52:00,24.0,16.0,-100.00,WNW,282,4.0,8.0,71,0.00,,,-99.99,,2013-02-03 17:52:00,
2013-02-03 13:03:00,26.0,19.0,-100.00,West,266,3.0,8.0,72,0.00,,,-99.99,,2013-02-03 18:03:00,
2013-02-03 13:12:00,24.0,16.0,-100.00,SW,224,2.0,8.0,68,0.00,,,-99.99,,2013-02-03 18:12:00,
2013-02-03 13:23:00,23.0,16.0,-100.00,SW,220,4.0,8.0,71,0.00,,,-99.99,,2013-02-03 18:23:00,
2013-02-03 13:33:00,23.0,16.0,-100.00,WSW,238,5.0,8.0,68,0.00,,,-99.99,,2013-02-03 18:33:00,
2013-02-03 13:42:00,22.0,14.0,-100.00,WSW,247,4.0,8.0,69,0.00,,,-99.99,,2013-02-03 18:42:00,
2013-02-03 13:52:00,24.0,16.0,-100.00,West,271,5.0,8.0,67,0.00,,,-99.99,,2013-02-03 18:52:00,
2013-02-03 14:02:00,24.0,16.0,-100.00,WSW,258,6.0,8.0,67,0.00,,,-99.99,,2013-02-03 19:02:00,
2013-02-03 14:11:00,25.0,18.0,-100.00,SW,228,6.0,8.0,68,0.00,,,-99.99,,2013-02-03 19:11:00,
2013-02-03 14:22:00,25.0,16.0,-100.00,South,190,6.0,8.0,68,0.00,,,-99.99,,2013-02-03 19:22:00,
2013-02-03 14:32:00,24.0,16.0,-100.00,SW,223,7.0,10.0,66,0.00,,,-99.99,,2013-02-03 19:32:00,
2013-02-03 14:42:00,24.0,16.0,-100.00,NW,306,4.0,10.0,67,0.00,,,-99.99,,2013-02-03 19:42:00,
2013-02-03 14:52:00,24.0,16.0,-100.00,WSW,249,3.0,10.0,69,0.00,,,-99.99,,2013-02-03 19:52:00,
2013-02-03 15:02:00,24.0,16.0,-100.00,WSW,240,6.0,10.0,68,0.00,,,-99.99,,2013-02-03 20:02:00,
2013-02-03 15:12:00,22.0,14.0,-100.00,SW,227,7.0,10.0,68,0.00,,,-99.99,,2013-02-03 20:12:00,
2013-02-03 15:22:00,23.0,16.0,-100.00,SW,234,6.0,10.0,69,0.00,,,-99.99,,2013-02-03 20:22:00,
2013-02-03 15:33:00,23.0,16.0,-100.00,West,264,6.0,10.0,71,0.00,,,-99.99,,2013-02-03 20:33:00,
2013-02-03 15:42:00,23.0,16.0,-100.00,SW,214,5.0,10.0,69,0.00,,,-99.99,,2013-02-03 20:42:00,
2013-02-03 15:52:00,23.0,16.0,-100.00,SW,224,4.0,10.0,68,0.00,,,-99.99,,2013-02-03 20:52:00,
2013-02-03 16:03:00,25.0,16.0,-100.00,WSW,258,5.0,10.0,68,0.00,,,-99.99,,2013-02-03 21:03:00,
2013-02-03 16:11:00,25.0,18.0,-100.00,SW,234,4.0,10.0,69,0.00,,,-99.99,,2013-02-03 21:11:00,
2013-02-03 16:21:00,24.0,16.0,-100.00,WSW,247,6.0,10.0,69,0.00,,,-99.99,,2013-02-03 21:21:00,
2013-02-03 16:33:00,24.0,16.0,-100.00,WSW,238,6.0,10.0,67,0.00,,,-99.99,,2013-02-03 21:33:00,
2013-02-03 16:42:00,23.0,14.0,-100.00,SSW,207,5.0,10.0,67,0.00,,,-99.99,,2013-02-03 21:42:00,
2013-02-03 16:52:00,24.0,16.0,-100.00,WSW,247,4.0,10.0,67,0.00,,,-99.99,,2013-02-03 21:52:00,
2013-02-03 17:02:00,24.0,16.0,-100.00,SW,227,7.0,10.0,69,0.00,,,-99.99,,2013-02-03 22:02:00,
2013-02-03 17:11:00,24.0,18.0,-100.00,WSW,237,8.0,10.0,71,0.00,,,-99.99,,2013-02-03 22:11:00,
2013-02-03 17:21:00,24.0,16.0,-100.00,SSW,213,7.0,10.0,71,0.00,,,-99.99,,2013-02-03 22:21:00,
2013-02-03 17:32:00,23.0,16.0,-100.00,SW,223,8.0,10.0,72,0.00,,,-99.99,,2013-02-03 22:32:00,
2013-02-03 17:42:00,24.0,18.0,-100.00,WSW,238,6.0,10.0,72,0.00,,,-99.99,,2013-02-03 22:42:00,
2013-02-03 17:51:00,24.0,18.0,-100.00,SW,220,7.0,10.0,76,0.55,,,-99.99,,2013-02-03 22:51:00,
2013-02-03 18:01:00,21.0,16.0,-100.00,SSW,208,7.0,10.0,76,0.00,,,-99.99,,2013-02-03 23:01:00,
2013-02-03 18:12:00,23.0,18.0,-100.00,WSW,245,5.0,10.0,78,0.55,,,-99.99,,2013-02-03 23:12:00,
2013-02-03 18:22:00,23.0,18.0,-100.00,WSW,244,4.0,10.0,78,0.00,,,-99.99,,2013-02-03 23:22:00,
2013-02-03 18:32:00,22.0,18.0,-100.00,WSW,241,4.0,10.0,80,0.00,,,-99.99,,2013-02-03 23:32:00,
2013-02-03 18:42:00,21.0,18.0,-100.00,SW,230,6.0,10.0,80,0.55,,,-99.99,,2013-02-03 23:42:00,
2013-02-03 18:52:00,22.0,18.0,-100.00,SW,224,7.0,10.0,81,7.95,,,-99.99,,2013-02-03 23:52:00,
2013-02-03 19:02:00,22.0,18.0,-100.00,SSW,210,5.0,10.0,81,10.79,,,-99.99,,2013-02-04 00:02:00,
2013-02-03 19:11:00,22.0,19.0,-100.00,SW,217,6.0,10.0,85,9.06,,,-99.99,,2013-02-04 00:11:00,
2013-02-03 19:22:00,21.0,18.0,-100.00,WSW,237,6.0,10.0,85,7.95,,,-99.99,,2013-02-04 00:22:00,
2013-02-03 19:32:00,21.0,19.0,-100.00,SW,223,8.0,12.0,86,0.55,,,-99.99,,2013-02-04 00:32:00,
2013-02-03 19:42:00,21.0,19.0,-100.00,SW,221,9.0,12.0,88,8.50,,,-99.99,,2013-02-04 00:42:00,
2013-02-03 19:51:00,21.0,19.0,-100.00,SW,220,8.0,12.0,88,3.39,,,-99.99,,2013-02-04 00:51:00,
2013-02-03 20:01:00,21.0,19.0,-100.00,WSW,237,7.0,12.0,90,0.55,,,-99.99,,2013-02-04 01:01:00,
2013-02-03 20:11:00,22.0,19.0,-100.00,SW,227,9.0,12.0,85,0.00,,,-99.99,,2013-02-04 01:11:00,
2013-02-03 20:21:00,20.0,18.0,-100.00,WSW,244,9.0,12.0,84,0.55,,,-99.99,,2013-02-04 01:21:00,
2013-02-03 20:32:00,20.0,16.0,-100.00,SW,234,9.0,12.0,82,0.55,,,-99.99,,2013-02-04 01:32:00,
2013-02-03 20:42:00,20.0,16.0,-100.00,SW,223,7.0,12.0,82,0.00,,,-99.99,,2013-02-04 01:42:00,
2013-02-03 20:52:00,20.0,16.0,-100.00,SW,214,8.0,12.0,81,0.00,,,-99.99,,2013-02-04 01:52:00,
2013-02-03 21:02:00,20.0,16.0,-100.00,WSW,238,9.0,12.0,81,0.00,,,-99.99,,2013-02-04 02:02:00,
2013-02-03 21:11:00,20.0,16.0,-100.00,SW,234,9.0,12.0,80,0.00,,,-99.99,,2013-02-04 02:11:00,
2013-02-03 21:21:00,20.0,14.0,-100.00,SW,214,9.0,12.0,77,0.00,,,-99.99,,2013-02-04 02:21:00,
2013-02-03 21:32:00,20.0,16.0,-100.00,WSW,237,9.0,12.0,80,0.00,,,-99.99,,2013-02-04 02:32:00,
2013-02-03 21:42:00,20.0,16.0,-100.00,SSW,192,7.0,12.0,78,0.00,,,-99.99,,2013-02-04 02:42:00,
2013-02-03 21:52:00,19.0,16.0,-100.00,WSW,248,7.0,12.0,81,0.00,,,-99.99,,2013-02-04 02:52:00,
2013-02-03 22:02:00,20.0,16.0,-100.00,WSW,242,8.0,12.0,80,0.00,,,-99.99,,2013-02-04 03:02:00,
2013-02-03 22:11:00,20.0,16.0,-100.00,SW,223,9.0,12.0,80,0.55,,,-99.99,,2013-02-04 03:11:00,
2013-02-03 22:21:00,20.0,16.0,-100.00,SW,231,9.0,12.0,80,0.00,,,-99.99,,2013-02-04 03:21:00,
2013-02-03 22:32:00,20.0,16.0,-100.00,SSW,213,8.0,12.0,81,0.55,,,-99.99,,2013-02-04 03:32:00,
2013-02-03 22:42:00,20.0,16.0,-100.00,SW,228,9.0,12.0,81,0.00,,,-99.99,,2013-02-04 03:42:00,
2013-02-03 22:51:00,21.0,16.0,-100.00,SSW,211,8.0,12.0,81,0.00,,,-99.99,,2013-02-04 03:51:00,
2013-02-03 23:01:00,21.0,18.0,-100.00,SW,227,7.0,12.0,81,0.00,,,-99.99,,2013-02-04 04:01:00,
2013-02-03 23:11:00,19.0,14.0,-100.00,SW,224,7.0,12.0,78,0.00,,,-99.99,,2013-02-04 04:11:00,
2013-02-03 23:21:00,19.0,16.0,-100.00,WSW,245,8.0,12.0,80,0.00,,,-99.99,,2013-02-04 04:21:00,
2013-02-03 23:32:00,19.0,14.0,-100.00,SW,224,7.0,12.0,78,0.00,,,-99.99,,2013-02-04 04:32:00,
2013-02-03 23:42:00,18.0,14.0,-100.00,SSW,211,8.0,12.0,78,0.00,,,-99.99,,2013-02-04 04:42:00,
2013-02-03 23:52:00,18.0,14.0,-100.00,SW,227,7.0,12.0,78,0.00,,,-99.99,,2013-02-04 04:52:00,